Change the Weather History Date:

Monday, May 6, 2013

  Actual Average Record
Temperature  
Mean Temperature 48 °F -  
Max Temperature 69 °F 58 °F 98 °F (1997)
Min Temperature 28 °F 33 °F 26 °F (2008)
Degree Days  
Heating Degree Days 16    
Moisture  
Dew Point 41 °F    
Average Humidity 73    
Maximum Humidity 100    
Minimum Humidity 43    
Precipitation  
Precipitation 0.00 in - - ()
Sea Level Pressure  
Sea Level Pressure 30.09 in    
Wind  
Wind Speed 1 mph (West)    
Max Wind Speed 9 mph    
Max Gust Speed -    
Visibility 9 miles    
Events Fog    
Averages and records for this station are not official NWS values.
T = Trace of Precipitation, MM = Missing Value Source: NWS Daily Summary

Daily Weather History Graph

Daily Weather History Graph

Search for Another Location

Airport or City:

Trip Planner

Search our weather history database for the weather conditions in past years. The results will help you decide how hot, cold, wet, or windy it might be!

Date:

Astronomy

May. 06, 2013 Rise Set
Actual Time 5:44 AM CDT 8:30 PM CDT
Civil Twilight 5:09 AM CDT 9:06 PM CDT
Nautical Twilight 4:24 AM CDT 9:51 PM CDT
Astronomical Twilight 3:31 AM CDT 10:45 PM CDT
Moon 4:01 AM CDT (5/6) 5:19 PM CDT (5/6)
Length of Visible Light 15h 56m
Length of Day
14h 46m
Waning Crescent, 11% of the Moon is Illuminated
May 6
Waning Crescent
May 9
New
May 17
First Quarter
May 24
Full
May 31
Last Quarter

Hourly Weather History & Observations

Time (CDT) Temp. Windchill Dew Point Humidity Pressure Visibility Wind Dir Wind Speed Gust Speed Precip Events Conditions
12:17 AM 37.4 °F - 35.6 °F 93% 30.13 in 10.0 mi Calm Calm - N/A   Overcast
12:37 AM 35.6 °F - 35.6 °F 100% 30.13 in 10.0 mi Calm Calm - N/A   Overcast
12:56 AM 37.4 °F - 35.6 °F 93% 30.13 in 10.0 mi Calm Calm - N/A   Overcast
1:37 AM 35.6 °F - 35.6 °F 100% 30.13 in 10.0 mi Calm Calm - N/A   Clear
1:56 AM 33.8 °F - 33.8 °F 100% 30.13 in 10.0 mi Calm Calm - N/A   Clear
2:17 AM 33.8 °F - 32.0 °F 93% 30.13 in 10.0 mi Calm Calm - N/A   Clear
2:36 AM 33.8 °F - 33.8 °F 100% 30.13 in 10.0 mi Calm Calm - N/A   Clear
2:56 AM 33.8 °F - 32.0 °F 93% 30.13 in 10.0 mi Calm Calm - N/A   Clear
3:17 AM 32.0 °F - 32.0 °F 100% 30.12 in 10.0 mi Calm Calm - N/A   Clear
3:36 AM 30.2 °F - 30.2 °F 100% 30.13 in 10.0 mi Calm Calm - N/A   Clear
3:57 AM 30.2 °F - 30.2 °F 100% 30.12 in 2.5 mi Calm Calm - N/A   Mostly Cloudy
4:17 AM 30.2 °F - 30.2 °F 100% 30.12 in 0.8 mi Calm Calm - N/A   Overcast
4:36 AM 30.2 °F - 30.2 °F 100% 30.12 in 0.5 mi Calm Calm - N/A Fog Light Freezing Fog
4:57 AM 30.2 °F - 30.2 °F 100% 30.12 in 0.8 mi Calm Calm - N/A   Overcast
5:17 AM 28.4 °F - 28.4 °F 100% 30.12 in 0.5 mi Calm Calm - N/A Fog Light Freezing Fog
5:36 AM 28.4 °F - 28.4 °F 100% 30.12 in 1.5 mi Calm Calm - N/A   Overcast
5:57 AM 28.4 °F - 28.4 °F 100% 30.13 in 0.2 mi Calm Calm - N/A Fog Light Freezing Fog
6:17 AM 30.2 °F - 30.2 °F 100% 30.12 in 0.2 mi Calm Calm - N/A Fog Light Freezing Fog
6:36 AM 30.2 °F - 30.2 °F 100% 30.13 in 0.5 mi Calm Calm - N/A Fog Light Freezing Fog
6:57 AM 32.0 °F - 30.2 °F 93% 30.13 in 0.2 mi Calm Calm - N/A Fog Fog
7:17 AM 33.8 °F - 33.8 °F 100% 30.14 in 2.0 mi Calm Calm - N/A   Overcast
7:36 AM 35.6 °F - 35.6 °F 100% 30.14 in 10.0 mi Calm Calm - N/A   Scattered Clouds
7:57 AM 37.4 °F - 37.4 °F 100% 30.14 in 10.0 mi Calm Calm - N/A   Clear
8:17 AM 41.0 °F - 41.0 °F 100% 30.13 in 10.0 mi Calm Calm - N/A   Clear
8:36 AM 44.6 °F 42.2 °F 41.0 °F 87% 30.13 in 10.0 mi SW 4.6 mph - N/A   Clear
8:57 AM 48.2 °F - 42.8 °F 82% 30.13 in 10.0 mi West 3.5 mph - N/A   Clear
9:16 AM 50.0 °F - 42.8 °F 76% 30.13 in 10.0 mi Calm Calm - N/A   Clear
9:36 AM 51.8 °F - 42.8 °F 71% 30.13 in 10.0 mi WNW 5.8 mph - N/A   Clear
9:57 AM 53.6 °F - 42.8 °F 67% 30.13 in 10.0 mi NW 4.6 mph - N/A   Clear
10:16 AM 55.4 °F - 44.6 °F 67% 30.12 in 10.0 mi West 4.6 mph - N/A   Clear
10:36 AM 55.4 °F - 44.6 °F 67% 30.12 in 10.0 mi West 4.6 mph - N/A   Clear
10:57 AM 57.2 °F - 44.6 °F 63% 30.12 in 10.0 mi WNW 4.6 mph - N/A   Clear
11:16 AM 59.0 °F - 44.6 °F 59% 30.11 in 10.0 mi Calm Calm - N/A   Clear
11:36 AM 60.8 °F - 44.6 °F 55% 30.11 in 10.0 mi Calm Calm - N/A   Clear
11:57 AM 62.6 °F - 46.4 °F 55% 30.11 in 10.0 mi West 6.9 mph - N/A   Clear
12:16 PM 62.6 °F - 46.4 °F 55% 30.10 in 10.0 mi Calm Calm - N/A   Clear
12:36 PM 62.6 °F - 46.4 °F 55% 30.10 in 10.0 mi SW 3.5 mph - N/A   Clear
12:57 PM 64.4 °F - 46.4 °F 52% 30.09 in 10.0 mi West 5.8 mph - N/A   Clear
1:16 PM 64.4 °F - 46.4 °F 52% 30.08 in 10.0 mi WNW 3.5 mph - N/A   Clear
1:36 PM 66.2 °F - 46.4 °F 49% 30.08 in 10.0 mi Calm Calm - N/A   Scattered Clouds
1:57 PM 66.2 °F - 46.4 °F 49% 30.07 in 10.0 mi SSE 6.9 mph - N/A   Scattered Clouds
2:16 PM 66.2 °F - 46.4 °F 49% 30.07 in 10.0 mi WNW 9.2 mph - N/A   Scattered Clouds
2:36 PM 66.2 °F - 46.4 °F 49% 30.07 in 10.0 mi WSW 8.1 mph - N/A   Mostly Cloudy
2:57 PM 68.0 °F - 46.4 °F 46% 30.06 in 10.0 mi West 8.1 mph - N/A   Scattered Clouds
3:16 PM 69.8 °F - 46.4 °F 43% 30.06 in 10.0 mi SW 8.1 mph - N/A   Scattered Clouds
3:36 PM 68.0 °F - 46.4 °F 46% 30.05 in 10.0 mi Calm Calm - N/A   Scattered Clouds
3:57 PM 69.8 °F - 46.4 °F 43% 30.04 in 10.0 mi West 5.8 mph - N/A   Mostly Cloudy
4:16 PM 68.0 °F - 46.4 °F 46% 30.04 in 10.0 mi West 6.9 mph - N/A   Overcast
4:37 PM 69.8 °F - 46.4 °F 43% 30.03 in 10.0 mi WNW 9.2 mph - N/A   Mostly Cloudy
4:56 PM 68.0 °F - 46.4 °F 46% 30.03 in 10.0 mi WNW 3.5 mph - N/A   Mostly Cloudy
5:17 PM 69.8 °F - 46.4 °F 43% 30.03 in 10.0 mi WNW 8.1 mph - N/A   Scattered Clouds
5:56 PM 69.8 °F - 46.4 °F 43% 30.03 in 10.0 mi WNW 4.6 mph - N/A   Clear
6:17 PM 69.8 °F - 46.4 °F 43% 30.03 in 10.0 mi West 6.9 mph - N/A   Scattered Clouds
6:37 PM 69.8 °F - 46.4 °F 43% 30.03 in 10.0 mi West 4.6 mph - N/A   Scattered Clouds
6:56 PM 69.8 °F - 46.4 °F 43% 30.03 in 10.0 mi West 6.9 mph - N/A   Clear
7:17 PM 69.8 °F - 46.4 °F 43% 30.02 in 10.0 mi WNW 5.8 mph - N/A   Clear
7:37 PM 68.0 °F - 46.4 °F 46% 30.02 in 10.0 mi West 3.5 mph - N/A   Clear
7:56 PM 66.2 °F - 46.4 °F 49% 30.02 in 10.0 mi Calm Calm - N/A   Clear
8:17 PM 64.4 °F - 46.4 °F 52% 30.02 in 10.0 mi Calm Calm - N/A   Clear
8:37 PM 64.4 °F - 46.4 °F 52% 30.03 in 10.0 mi Calm Calm - N/A   Clear
8:56 PM 57.2 °F - 46.4 °F 67% 30.03 in 10.0 mi Calm Calm - N/A   Clear
9:17 PM 55.4 °F - 46.4 °F 72% 30.03 in 10.0 mi Calm Calm - N/A   Clear
9:37 PM 53.6 °F - 46.4 °F 77% 30.04 in 10.0 mi Calm Calm - N/A   Clear
9:56 PM 51.8 °F - 46.4 °F 82% 30.04 in 10.0 mi Calm Calm - N/A   Clear
10:17 PM 48.2 °F - 44.6 °F 87% 30.04 in 10.0 mi Calm Calm - N/A   Clear
10:37 PM 46.4 °F - 42.8 °F 87% 30.04 in 10.0 mi Calm Calm - N/A   Clear
10:56 PM 46.4 °F - 42.8 °F 87% 30.04 in 10.0 mi Calm Calm - N/A   Clear
11:17 PM 46.4 °F - 42.8 °F 87% 30.04 in 10.0 mi Calm Calm - N/A   Clear
11:36 PM 44.6 °F - 41.0 °F 87% 30.04 in 10.0 mi Calm Calm - N/A   Clear
11:56 PM 44.6 °F - 41.0 °F 87% 30.05 in 10.0 mi Calm Calm - N/A   Clear